GFSFLT1_sfc_rhum_000.txt.gz
RH
19 20 24 27 29 30 35 52 45 42 46 50 45 46 48 47 50 50 51 50 54 60 61 68 70 66 66 69 74 66 67 64
29 34 37 34 37 32 40 53 52 42 46 48 50 54 48 50 45 48 46 50 52 59 60 60 61 62 66 65 64 65 61 68
28 33 39 46 43 46 50 46 42 40 40 48 50 50 48 47 48 51 50 54 50 43 57 56 59 63 65 69 73 66 60 59
29 35 42 47 46 46 37 38 41 49 46 39 44 46 48 48 48 49 48 48 46 49 54 58 62 63 64 66 67 67 68 61
25 34 41 46 48 48 41 40 38 41 45 48 48 48 52 53 58 54 55 51 52 46 50 59 63 66 66 69 52 72 72 69
31 34 37 40 48 52 47 41 38 40 44 48 52 60 62 61 63 59 55 57 53 50 52 59 66 64 67 71 69 74 77 82
30 33 36 40 48 50 47 41 36 41 45 51 56 56 57 56 56 58 54 54 54 55 53 62 66 68 66 68 77 77 86 86
32 31 34 39 44 45 44 42 38 40 44 44 47 51 55 56 57 58 57 56 59 58 60 63 64 64 65 65 73 78 80 86
34 34 38 38 42 44 45 43 41 40 47 46 50 54 53 53 58 56 60 61 61 59 63 63 63 67 70 71 77 79 80 85
31 32 37 39 41 44 48 46 43 43 48 55 56 56 58 58 56 58 59 60 48 64 68 64 65 68 72 76 80 80 83 85
34 33 39 39 41 48 54 49 45 46 47 54 49 52 53 54 55 56 60 62 58 61 67 69 69 69 68 70 79 77 78 84
33 34 36 37 41 43 50 50 47 48 47 51 56 55 54 55 56 61 62 63 61 60 61 63 62 64 82 84 84 78 72 72
36 39 41 41 45 45 46 52 53 52 52 52 50 52 50 53 59 57 60 60 62 58 60 60 64 67 79 85 83 79 74 74
38 41 41 39 41 45 45 50 52 50 48 48 47 50 50 54 54 54 56 58 58 56 49 50 47 50 49 52 53 55 56 54
44 44 43 40 41 41 41 43 55 53 49 48 51 54 50 50 51 51 54 52 49 46 46 47 50 44 41 51 49 57 58 53
47 48 44 39 40 37 34 37 41 50 54 51 56 51 47 49 53 51 52 51 44 44 43 48 50 45 50 65 59 60 60 57
44 43 38 35 33 30 29 31 34 45 43 49 47 48 50 53 54 54 51 48 45 47 50 51 55 36 69 69 70 69 60 59
46 38 33 30 27 26 27 27 28 38 40 41 50 71 65 64 51 44 42 49 52 56 55 54 57 61 67 69 69 65 62 60
39 30 29 28 27 25 26 24 27 29 32 38 54 62 60 53 52 51 48 49 54 55 59 57 60 53 71 70 69 73 66 65

GFSFLT1_sfc_rhum_003.txt.gz
RH
39 41 39 37 52 62 71 79 82 55 51 46 62 54 56 56 53 49 46 58 58 61 61 63 66 67 71 72 73 70 74 68
46 45 47 49 54 52 60 67 54 51 63 64 63 54 53 53 50 52 50 48 46 52 58 66 68 66 68 68 76 72 68 73
44 48 49 62 48 46 55 57 57 54 62 62 57 54 52 51 50 49 53 56 54 48 61 66 64 66 64 65 66 76 73 73
46 48 54 51 50 47 44 46 46 54 53 46 47 50 53 56 61 60 59 64 57 56 60 66 66 71 69 70 74 68 77 76
46 51 56 57 59 50 46 43 40 41 49 53 56 64 70 71 70 66 67 60 57 56 57 62 71 73 73 77 64 78 84 88
51 53 53 56 54 54 50 44 42 43 44 48 63 62 66 67 68 65 60 60 58 57 60 65 72 77 73 78 83 85 90 91
48 51 49 52 53 50 44 40 41 44 45 46 56 54 57 67 64 64 62 62 64 57 57 65 69 72 75 79 86 85 88 83
46 49 53 51 53 50 48 48 42 45 51 50 50 58 59 64 62 62 58 65 62 61 69 73 74 71 76 79 85 88 90 92
45 44 48 47 45 44 50 44 43 42 49 57 59 60 65 63 52 51 57 65 66 69 71 71 71 73 78 81 87 86 84 92
40 40 39 44 45 54 56 52 50 48 54 58 60 59 59 60 51 54 68 70 56 73 76 76 76 77 78 77 85 88 89 92
47 45 52 54 55 61 60 58 56 55 56 64 63 59 60 67 67 71 71 70 69 71 71 72 72 72 77 86 92 90 92 92
53 53 53 57 56 58 62 59 57 59 52 55 56 56 61 67 66 66 66 68 69 68 66 68 70 73 78 89 92 92 90 88
53 54 53 51 53 52 52 57 62 58 56 60 60 62 55 65 63 60 63 62 63 66 64 59 60 61 66 79 91 90 85 77
58 57 54 50 49 50 53 53 59 56 58 62 62 58 56 56 53 58 57 59 58 55 55 56 56 59 59 62 65 68 69 67
58 58 55 50 47 48 44 44 46 57 65 68 74 78 64 56 59 58 55 53 50 49 48 51 57 57 60 62 60 68 69 64
55 55 52 48 42 36 33 39 43 37 48 59 71 72 68 76 75 63 60 55 49 44 46 53 57 56 54 71 66 70 70 70
54 52 45 36 32 33 35 38 38 37 36 37 42 81 84 83 73 71 65 52 45 47 53 58 61 49 73 69 71 71 66 66
55 50 36 36 36 37 39 38 39 40 39 41 72 78 80 82 82 72 49 48 51 54 60 63 63 74 70 67 65 69 71 73
52 41 36 36 34 36 37 36 38 43 49 56 62 75 79 81 81 57 52 50 49 59 66 70 72 63 75 72 71 80 80 78

GFSFLT1_sfc_rhum_006.txt.gz
RH
55 58 68 66 85 85 85 86 82 65 61 67 72 78 61 57 54 54 56 57 58 59 61 66 70 69 69 69 68 69 74 80
53 58 56 58 59 64 70 69 62 53 71 76 79 58 57 56 57 60 61 60 63 64 71 73 74 70 70 69 72 76 71 76
50 56 63 66 58 67 70 63 61 64 75 76 67 64 62 62 65 56 63 66 60 55 68 68 75 72 72 75 79 78 79 77
53 56 61 60 55 55 49 51 54 61 58 58 61 60 63 67 64 66 59 60 61 62 64 70 73 76 78 78 81 83 87 87
53 57 60 59 58 54 48 46 45 48 52 56 61 68 69 74 76 69 60 61 61 59 62 69 76 78 77 82 78 89 87 92
60 60 57 57 56 55 52 48 47 48 49 54 66 63 67 75 71 62 59 62 61 59 68 68 70 76 80 83 90 89 93 93
59 58 55 55 57 53 50 44 44 49 51 54 61 61 66 68 62 61 62 66 64 69 65 74 75 82 83 87 86 90 91 93
61 58 57 56 62 53 52 51 48 48 56 62 65 67 64 59 57 55 54 60 65 72 75 80 81 83 82 83 86 84 85 86
60 59 57 56 59 61 59 55 54 58 61 63 64 63 62 57 55 61 68 75 76 80 79 76 75 78 80 83 88 90 90 93
54 59 59 59 59 65 57 51 49 56 59 64 64 62 62 65 66 68 73 76 70 76 77 73 74 74 78 84 89 90 92 92
58 59 63 64 64 60 59 58 55 56 61 64 60 62 64 74 74 75 72 72 72 70 69 70 71 74 78 86 89 90 92 94
61 60 62 59 53 53 58 63 64 63 62 63 65 66 67 72 73 67 68 69 70 64 64 63 61 65 71 78 84 89 93 89
62 60 56 54 54 55 52 59 61 62 66 68 70 70 66 70 70 68 71 66 68 63 61 58 59 60 64 68 78 76 70 71
64 61 56 53 50 46 42 45 47 50 51 66 74 73 80 70 68 68 62 63 59 56 54 54 55 60 61 68 70 70 69 70
61 60 57 49 41 39 40 44 48 46 45 54 58 62 73 72 70 75 78 81 80 61 51 52 59 59 64 63 64 69 69 66
57 59 56 41 39 40 41 45 46 47 48 50 67 86 81 78 74 80 83 86 78 55 50 54 62 62 60 70 67 68 68 68
60 56 44 38 39 40 40 42 45 49 50 64 75 82 81 84 84 86 91 90 55 50 54 63 66 53 73 71 68 71 67 67
58 56 38 40 39 38 38 40 44 49 54 65 69 81 84 88 89 92 92 71 56 58 62 66 72 73 75 72 72 71 74 78
55 38 36 37 37 36 39 41 44 51 68 66 70 74 79 82 88 85 86 61 60 61 75 75 75 68 74 78 78 90 89 88

GFSFLT1_sfc_rhum_009.txt.gz
RH
72 85 89 90 93 90 92 91 87 86 77 71 82 86 82 77 68 64 62 66 68 69 74 76 79 74 73 74 73 74 75 80
64 66 70 65 80 81 84 82 80 77 77 83 87 74 70 72 69 74 68 62 59 67 72 73 75 72 75 76 80 79 73 81
56 58 64 72 75 79 73 73 71 76 84 83 81 79 70 71 64 60 59 64 63 58 68 72 76 75 75 79 83 83 85 90
62 58 59 58 60 62 55 58 58 65 72 72 66 67 71 70 71 67 62 63 62 65 69 77 80 81 84 87 90 90 92 91
56 57 57 54 58 54 50 49 50 51 54 56 57 63 67 78 77 65 62 65 64 67 72 78 82 85 88 90 88 96 96 98
60 58 57 58 57 55 54 51 49 50 52 57 68 71 75 80 69 62 61 67 72 70 72 70 75 83 87 87 90 90 92 94
64 60 58 60 63 60 56 53 55 56 58 63 71 69 74 65 62 65 65 69 74 73 67 75 82 83 85 87 88 86 89 92
61 56 60 65 70 68 61 62 66 66 67 68 68 64 60 59 58 61 60 70 78 76 79 82 83 82 82 84 85 88 91 92
64 66 70 69 64 58 55 57 58 59 60 62 64 58 64 62 61 65 75 82 82 82 82 76 74 76 81 86 86 88 88 90
65 68 69 68 68 68 64 56 55 57 60 66 67 67 69 74 76 83 83 84 75 82 74 74 79 76 76 83 85 84 90 91
67 67 64 60 61 65 67 67 62 63 66 72 69 75 75 78 83 80 79 75 68 69 78 84 68 65 69 80 85 86 90 94
66 64 58 56 57 55 62 65 61 59 62 68 76 77 76 78 80 78 75 73 72 73 73 66 62 61 66 70 74 78 89 88
60 58 55 54 51 47 48 52 49 53 58 64 67 70 71 79 79 77 75 71 71 75 77 76 67 61 63 67 70 79 74 72
64 58 56 48 43 42 43 46 46 47 48 55 61 69 79 87 86 68 67 75 79 84 82 73 64 60 62 67 73 72 69 70
62 61 50 40 40 42 43 45 48 48 48 56 73 82 82 75 71 75 78 82 90 91 88 70 62 60 62 67 67 68 70 68
59 61 47 38 42 42 42 45 46 49 49 60 73 84 84 82 83 84 86 89 88 92 74 59 63 62 63 67 65 71 72 73
55 55 44 39 40 39 39 42 46 50 51 63 70 73 81 88 90 92 88 91 94 61 71 66 72 58 73 69 71 76 71 71
57 59 42 42 41 41 42 41 46 50 54 66 72 76 83 86 87 94 94 93 78 74 65 70 70 71 74 74 80 78 84 88
61 53 41 43 42 41 43 42 47 52 57 72 73 77 79 82 88 89 91 93 92 70 76 76 78 78 80 82 86 82 92 89

GFSFLT1_sfc_rhum_012.txt.gz
RH
83 94 96 97 97 95 95 93 92 90 88 82 90 91 90 88 84 75 70 63 64 66 67 74 73 73 77 77 74 75 77 83
81 83 88 83 90 92 89 89 87 84 84 89 85 85 88 83 73 67 62 58 60 66 72 74 76 76 79 81 82 82 78 91
65 72 80 80 87 92 88 83 75 77 82 87 88 84 81 75 67 65 66 66 64 64 75 80 79 78 83 88 88 85 85 94
63 62 66 79 81 72 64 66 65 70 78 74 70 72 77 73 74 64 67 66 68 71 77 79 80 81 88 92 91 90 92 92
55 54 53 55 60 58 56 56 55 56 58 59 59 66 73 84 72 65 68 70 71 70 72 77 80 85 86 91 86 91 92 94
52 56 54 61 59 60 61 57 57 58 60 69 77 80 86 74 68 64 63 70 67 68 71 77 82 86 86 87 88 84 88 90
63 63 59 58 63 64 64 67 68 69 69 72 73 77 66 64 68 71 71 72 76 75 74 83 86 86 86 87 86 85 90 90
73 67 62 70 74 71 66 63 63 63 61 60 62 61 58 64 67 75 73 79 83 86 83 85 86 81 76 77 80 82 85 84
68 72 72 65 61 60 61 59 61 62 66 66 66 65 72 74 79 80 85 88 88 86 85 78 78 78 78 82 81 84 86 83
75 73 72 71 71 70 64 62 64 67 70 75 78 80 79 83 83 87 90 87 82 87 82 83 85 81 82 83 88 80 84 87
74 68 66 67 69 73 73 66 58 55 57 70 68 68 70 76 84 85 87 86 81 76 80 83 82 80 76 78 81 81 86 90
68 64 62 58 52 54 50 48 43 49 54 61 62 66 71 77 83 87 85 79 77 79 79 80 73 73 76 76 76 75 81 90
65 61 56 44 43 41 47 45 42 48 52 58 62 68 72 77 84 85 82 79 78 76 80 81 81 81 74 72 71 73 81 73
67 62 52 43 43 44 42 43 41 45 48 54 63 71 78 78 74 74 77 77 80 83 83 87 87 74 65 68 73 76 71 68
67 61 50 45 42 41 42 44 48 48 48 55 66 73 82 85 83 80 80 83 88 86 89 92 77 63 64 69 69 67 68 70
66 63 54 39 42 44 45 47 49 50 51 54 65 76 80 86 89 91 92 92 85 87 87 65 66 64 62 68 63 69 73 75
58 58 46 40 42 44 44 45 48 51 54 56 66 75 78 82 88 89 93 94 94 94 76 73 70 60 71 70 75 84 78 82
56 55 53 44 44 46 44 44 48 53 57 58 68 77 80 82 85 89 92 93 91 83 77 71 75 77 75 76 86 87 86 85
56 62 60 46 47 43 46 46 49 54 57 61 72 78 81 84 88 90 91 92 94 91 77 78 83 85 78 79 80 82 84 82